Regional Weather Roundup
Issued by NWS Charleston, SC

Current Version | Previous Version | Graphics & Text | Print | Product List | Glossary On
Versions: 1 2 3 4 5 6 7 8 9 10 11 12 13 14 15 16 17 18 19 20 21 22 23 24 25 26 27 28 29 30 31 32 33 34 35 36 37 38 39 40 41 42 43 44 45 46 47 48 49 50
555
ASUS42 KCHS 242113
RWRCHS

REGIONAL WEATHER ROUNDUP
NATIONAL WEATHER SERVICE CHARLESTON SC
500 PM EDT SAT SEP 24 2016

NOTE: "FAIR" INDICATES FEW OR NO CLOUDS BELOW 12,000 FEET WITH NO
SIGNIFICANT WEATHER AND/OR OBSTRUCTIONS TO VISIBILITY.

NOT ALL STATIONS ARE QUALITY CONTROLLED. USE DATA WITH CAUTION...
ESPECIALLY DEWPOINT OBSERVATIONS.

SCZ027-030-031-034>040-042>050-242200-
...SOUTHEAST SOUTH CAROLINA...

CITY           SKY/WX    TMP DP  RH WIND       PRES   REMARKS
N CHARLESTON   MOSUNNY   86  73  65 E5        29.99F HX  93
WATERFRONT PRK   N/A     83  76  79 SE7       29.99F HX  91
MOUNT PLEASANT FAIR      82  75  78 CALM      30.00S
JOHNS ISLAND   FAIR      84  75  74 E7        30.00S HX  92
PINOPOLIS        N/A     84  73  70 CALM      29.94F HX  91
MONCKS CORNER  FAIR      86  68  54 N3        30.00S
SUMMERVILLE    FAIR      88  72  58 NE3       30.00F HX  94
BEAUFORT MCAS  MOSUNNY   88  70  55 E5        29.99F HX  93
BEAUFORT ARPT  FAIR      86  70  58 NE6       29.99S HX  90
HILTON HEAD IS MOSUNNY   91  73  55 N6        30.00F HX 100
WALTERBORO     PTCLDY    88  68  51 N6        30.00F HX  91
ALLENDALE      FAIR      88  66  48 CALM      29.99F HX  90

...SOUTHERN MIDLANDS AND PEE DEE...

CITY           SKY/WX    TMP DP  RH WIND       PRES   REMARKS
GEORGETOWN     FAIR      82  72  69 SE6       30.01S
KINGSTREE      FAIR      86  66  51 N3        30.00F
ORANGEBURG     SUNNY     88  66  48 CALM      30.01F HX  90
BARNWELL       NOT AVBL
AIKEN          FAIR      88  63  42 N3        30.05F
MANNING        FAIR      86  66  51 N3        30.00F
COLUMBIA       MOSUNNY   92  64  39 VRB5      30.00F HX  93
SUMTER         SUNNY     89  64  44 N6        29.98F HX  90
FLORENCE       SUNNY     89  67  47 N3        30.01F HX  92
MYRTLE BEACH   MOSUNNY   84  68  58 VRB5      30.02S
N MYRTLE BEACH SUNNY     83  73  72 S5        30.00S

$$

GAZ063-065-086>088-099>101-113>116-118-119-134>141-150-242200-
...SOUTHEAST GEORGIA...

CITY           SKY/WX    TMP DP  RH WIND       PRES   REMARKS
SAVANNAH ARPT  PTSUNNY   89  68  49 VRB7      29.99F HX  93
HUNTER AAF     MOSUNNY   88  76  68 NE5       29.97F HX  99
FORT STEWART   CLOUDY    85  71  62 CALM      29.98F HX  90
STATESBORO     MOSUNNY   90  72  55 NE5       30.01S HX  96
SYLVANIA       NOT AVBL
CLAXTON        FAIR      86  72  62 CALM      30.00F HX  92

...CSRA...CENTRAL AND FAR SOUTHEAST GEORGIA...

CITY           SKY/WX    TMP DP  RH WIND       PRES   REMARKS
THOMSON        SUNNY     94  64  37 E3        30.05F HX  95
AUGUSTA-BUSH   MOSUNNY   90  65  43 CALM      29.99F HX  92
AUGUSTA-DANIEL MOSUNNY   92  63  38 CALM      30.01F HX  93
SWAINSBORO     FAIR      90  66  45 CALM      30.01F HX  92
VIDALIA        MOSUNNY   90  72  55 NE6       30.01S HX  96
EASTMAN        FAIR      93  46  19 E6        30.02F
HAZLEHURST     FAIR      91  68  47 SW3       29.99S HX  95
ALMA           MOSUNNY   90  68  48 NE5       29.99F HX  94
WAYCROSS       SUNNY     91  72  52 NE7       29.98F HX  98
JESUP          FAIR      88  75  66 E6        30.00S HX  97
BAXLEY         FAIR      91  73  55 NE3       29.99S HX 100
BRUNSWICK      MOSUNNY   88  77  70 E9        30.00S HX 100
SAINT SIMONS   MOSUNNY   84  73  69 E10       30.00F HX  90

$$

SCZ027-028-034-036>038-045-046-048>050-GAZ119-141-242200-
...LAKE AND SUPPLEMENTAL COASTAL OBSERVATIONS...

STATION/POSITION TIME  TEMP    WIND        PRES    WAVE   SWELL
                       AIR SEA DIR/SP/G            HT/PER HT/PER/DIR
                 (UTC) (F)     (DEG/KT/KT) (MB)    (FT/S) (FT/S/D)
WINYAH BAY       NOT AVBL
LAKE MURRAY      2020   87     200/  5/  5 1015.9
ACE BASIN NERRS  1945   87      50/  3     1016.0
FORT PULASKI     2042   82 81   70/  5/  6 1016.2F
SAPELO ISLAND    2000   85      80/  5     1016.0

$$

ANZ835-935-AMZ111-154-330-350-352-354-370-450-454-472-242200-
...C-MAN AND BUOY OBSERVATIONS...

STATION/POSITION TIME  TEMP    WIND        PRES    WAVE   SWELL
                       AIR SEA DIR/SP/G            HT/PER HT/PER/DIR
                 (UTC) (F)     (DEG/KT/KT) (MB)    (FT/S) (FT/S/D)
BUOY 41004       2050   81 83   40/ 12/ 14 1015.0F   3/11   3/ 90/11
BUOY 41008       2050   80 83   50/  6/  8 1015.8F   2/11   2/110/11
FOLLY BEACH CMAN 2000   80      80/  6/  7 1016.5F
CAPERS NEARSHORE 2008   80 81   80/  8/ 10 1015.8F
FRIPP NEARSHORE  2008   85 83  100/  6/  8 1015.9F


STATION/POSITION TIME  TEMP    WIND        PRES    WAVE   SWELL
                       AIR SEA DIR/SP/G            HT/PER HT/PER/DIR
                 (UTC) (F)     (DEG/KT/KT) (MB)    (FT/S) (FT/S/D)
5E ST. MARYS GA  2001      83                N/A     2/11   2/100/11
FRYING PAN BUOY  2050   80 82   30/ 10/ 14 1015.5F   4/11   3/120/11
BUOY 41025       2050   80 81   20/ 10/ 10 1015.9S   5/11   5/110/11
CAPE LOOKOUT NC  2100   80      60/  9/ 11 1015.8R
BUOY 41002       2050   83 83  300/  8/ 10 1014.5F   4/10   3/110/10
BUOY 41010       NOT AVBL
ST AUGUSTINE FL  2100   81 85   50/ 13/ 14 1016.6F


$$




USA.gov is the U.S. government's official web portal to all federal, state and local government web resources and services.